Погода в Бас-Тере

Гваделупа     15°59′53″N   61°44′02″W
темп.,
°C
ветер,
м/с
пор.,
м/с
влажн.,
%
обл.,
%
осадки,
мм/ч
давл.,
гПа
погр.,
м
9 августа, вт
вт923:00+27всв578111 0.1 1014578
02:00+26всв568112 0.3 1013577
05:00+26св45827 0.2 1014332
08:00+28всв457626 0.4 1015472
11:00+28в567297 0.1 1016467
14:00+29всв457118 0.1 1014386
17:00+28всв567461 0.1 1014608
20:00+27всв678063 0.4 1016572
10 августа, ср
ср1023:00+27всв6878100 0.2 1016752
02:00+26всв677898 0.3 1014747
05:00+26всв567862 0.2 1015725
08:00+27всв577657 0.3 1016863
11:00+28в56745 0.1 1016615
14:00+28вюв777479 0.1 1015517
17:00+28в677333 0.1 1014447
20:00+26всв678076 0.3 1016487
11 августа, чт
чт1123:00+26всв678043 0.1 1016548
02:00+26всв678096 0.3 1014648
05:00+26в677811 0.2 1014800
08:00+27в677599 0.3 1015862
11:00+27в787411 0.1 1015813
14:00+28вюв7774100 0.1 1015716
17:00+28в7772100 0.0 1014512
20:00+26всв5678100 0.0 1015373
12 августа, пт
пт1223:00+26всв5680100 0.1 1016462
02:00+26всв5680100 0.1 1014453
05:00+26всв4580100 0.2 1014473
08:00+27всв457499 0.3 1015640
11:00+28всв457497 0.2 1016640
14:00+28в667314 0.6 1014737
17:00+27в66757 0.3 1013557
20:00+27всв56806 0.6 1015519
13 августа, сб
сб1323:00+26всв56785 0.1 1015515
02:00+26всв46745 0.3 1013592
05:00+26всв56765 0.0 1013556
08:00+27всв677311 0.1 1015865
11:00+27всв567519 0.1 1015659
14:00+28в777394 0.1 1013652
17:00+28в677025 0.0 1013387
20:00+27всв568093 0.1 1014405